RH
7 7 8 8 9 8 8 8 8 9 11 10 9 9 8 8 8 7 5 5 8 15 19 16 15 12 13 14 14 13 17 32 36 33 36 35 37 38 30 26 27 26 27 33 40 43 43 41 42 43 44 42 39 37 33 30 26 22 21 21 21 20 20 20 20 20 20 20 20 19 20 21 24 29 29 27 24 21 18 16 15 13 13 10 8 6 4 4 4 4 5 6 7 7 8 7 7
5 5 6 6 6 6 7 6 8 8 10 12 9 8 7 7 5 5 5 7 12 18 21 17 15 14 13 14 15 15 18 28 28 26 31 33 35 33 29 27 25 26 27 31 40 42 42 42 43 46 47 46 43 41 37 34 29 24 22 21 21 20 21 21 21 21 21 21 20 20 19 20 24 29 29 27 25 23 21 18 15 14 13 11 9 7 5 4 4 4 4 5 5 6 7 8 8
4 4 5 5 5 5 5 6 8 9 11 11 7 6 5 5 6 10 9 10 20 22 22 18 15 15 15 17 17 16 19 23 21 22 26 29 32 31 30 29 26 27 30 33 37 40 43 43 45 48 49 47 44 44 42 38 32 27 23 22 22 21 21 21 21 21 21 21 20 20 19 20 25 30 30 28 26 23 22 20 16 14 13 12 10 8 7 6 5 5 5 5 5 5 6 6 7
4 4 4 4 5 5 5 5 8 10 13 10 6 5 3 7 12 19 16 16 28 26 22 20 16 18 21 21 18 16 16 17 19 22 23 27 33 35 34 32 30 29 32 35 36 40 43 44 45 47 47 46 44 45 45 42 37 31 25 23 23 22 22 22 22 22 22 22 21 20 20 20 25 29 30 29 26 24 23 21 17 14 13 12 11 10 8 8 7 7 7 7 7 6 6 6 7
4 4 4 5 4 5 6 7 9 9 9 6 5 3 3 11 15 19 18 20 27 24 22 20 17 20 22 21 21 21 20 21 23 24 22 24 28 31 33 32 32 28 32 36 36 42 43 42 43 45 45 44 43 46 47 46 42 35 29 25 24 24 23 23 23 23 23 22 22 21 20 20 24 28 30 30 27 24 23 22 19 15 14 13 12 11 10 9 9 9 9 9 9 9 9 9 8
4 4 4 5 5 6 8 9 10 7 5 3 4 2 3 11 15 16 17 18 18 19 21 20 21 19 22 25 27 27 31 34 29 29 26 22 21 25 33 33 32 30 31 32 35 41 42 42 44 46 46 45 45 47 49 49 46 40 33 27 25 25 24 25 24 24 23 23 23 21 20 20 23 28 31 31 26 23 24 23 20 16 15 14 12 12 11 11 10 10 10 11 11 12 12 12 11
4 5 5 5 5 7 10 10 9 7 3 3 4 3 6 10 13 14 15 16 14 15 17 18 20 18 25 32 34 32 38 44 34 33 33 27 22 23 32 32 30 29 28 31 35 39 40 43 46 49 49 48 49 50 51 52 49 44 37 30 27 26 26 26 25 25 24 24 24 22 21 20 23 29 33 31 27 23 24 23 19 17 16 14 13 13 13 12 12 12 12 13 13 14 15 15 14
5 5 5 5 7 10 12 11 9 7 4 4 6 6 11 12 11 13 12 14 13 13 13 14 15 17 27 34 38 37 38 42 36 35 36 32 26 20 24 23 21 24 30 36 38 38 39 43 48 51 52 51 51 51 53 53 51 47 40 33 29 27 27 26 26 25 25 25 24 22 21 20 25 32 35 32 27 24 25 24 19 17 17 15 14 14 14 14 14 14 15 15 16 17 17 18 17
5 6 6 6 8 11 11 10 7 5 3 4 6 7 13 14 12 13 11 12 10 12 16 16 19 23 32 35 38 38 36 38 35 35 33 32 25 18 20 18 22 32 37 38 37 39 41 45 49 51 52 52 52 53 54 55 54 49 43 35 30 29 27 27 26 26 26 26 25 23 21 22 30 36 36 32 26 24 26 23 20 18 17 16 15 15 16 16 16 17 18 18 19 20 20 21 21
5 7 9 10 12 15 13 8 5 4 3 4 7 7 11 14 14 13 10 12 11 14 21 22 25 29 34 37 38 38 37 35 32 29 29 30 23 19 21 21 29 37 36 34 35 38 40 43 47 49 51 52 53 55 56 57 56 51 45 38 32 30 29 28 27 27 27 27 25 23 22 23 33 38 35 31 25 25 25 22 20 18 17 17 16 16 17 17 18 18 20 21 21 22 22 23 23
5 8 13 16 17 19 15 8 4 3 6 10 12 11 12 13 12 12 10 11 10 12 18 17 21 24 30 36 39 39 36 32 28 22 21 24 22 21 22 23 26 26 26 29 33 36 37 40 44 47 50 51 53 56 58 59 58 52 45 39 34 32 30 30 28 28 28 27 26 24 23 24 33 39 34 29 24 25 24 21 20 19 18 17 17 17 18 18 19 20 21 22 22 22 23 23 23
6 10 15 19 20 18 13 9 6 6 11 14 13 11 12 11 11 12 10 11 9 10 12 13 21 23 24 32 36 36 33 30 26 18 15 19 21 20 20 22 22 20 22 24 30 33 36 41 45 47 48 50 53 58 61 61 59 53 47 42 37 35 32 31 30 29 29 29 28 26 23 25 34 38 34 28 25 25 24 21 20 19 18 17 17 18 19 20 20 21 22 22 23 23 23 23 24
9 13 17 19 19 18 16 15 13 12 14 12 11 9 10 10 10 11 10 10 8 9 10 12 22 24 24 30 33 35 32 29 26 20 19 20 19 20 22 23 23 24 25 24 27 32 37 44 47 48 50 53 57 62 63 63 61 54 50 47 42 38 35 34 33 31 31 30 29 27 24 26 34 38 34 29 26 26 25 21 20 19 19 18 18 18 19 20 21 22 22 23 23 23 24 24 24
10 16 17 17 18 19 19 19 16 15 13 10 10 8 9 10 10 11 10 9 9 12 16 16 18 20 23 27 32 34 31 30 27 23 23 22 20 23 26 27 29 30 30 28 27 32 39 45 48 51 55 59 63 66 66 65 64 58 54 52 47 41 38 38 37 34 33 33 31 29 26 26 33 37 34 30 27 27 25 22 20 19 20 19 18 19 20 21 21 22 22 23 23 24 24 24 24
12 19 19 18 17 17 17 16 15 15 13 10 10 9 10 11 10 10 8 9 9 12 20 21 17 20 22 20 25 29 30 32 27 23 22 24 25 27 29 30 33 34 35 37 33 37 44 47 50 53 58 62 66 69 69 69 67 63 58 55 51 45 43 42 41 39 37 37 34 33 31 28 31 34 34 32 27 28 27 23 20 20 20 20 19 19 21 21 22 22 23 23 24 24 24 24 24
15 21 20 18 17 16 15 15 16 16 14 12 10 9 10 9 9 9 7 8 10 14 21 22 21 25 28 26 30 32 33 33 26 22 22 25 27 25 30 32 33 37 42 46 43 44 48 48 50 52 56 62 67 70 70 69 69 66 61 58 54 50 48 47 46 45 44 43 40 38 36 32 31 32 33 33 29 28 28 25 21 20 21 21 21 20 21 22 22 23 23 23 24 25 25 25 25
18 21 19 18 17 15 14 15 17 16 16 13 10 10 9 8 8 8 7 9 11 15 21 27 30 33 37 39 40 37 36 32 23 20 21 26 25 22 29 33 35 41 43 50 52 52 53 50 51 52 57 62 66 69 69 69 70 68 64 61 58 55 53 52 51 51 50 50 48 45 42 38 36 35 33 33 31 28 29 27 22 20 21 22 22 22 21 22 23 23 23 24 24 25 25 25 25
18 20 19 18 15 13 13 16 17 17 17 13 11 11 10 9 8 8 8 10 10 14 26 36 38 39 43 42 38 35 32 28 20 18 22 26 24 21 26 29 34 39 42 52 56 57 59 55 53 56 62 67 68 70 70 71 73 72 67 63 61 59 57 57 57 58 58 57 55 52 49 45 42 37 34 34 33 30 29 28 24 22 21 22 24 23 22 22 23 23 24 24 24 25 25 25 25
18 19 19 16 12 11 13 17 16 17 17 15 14 11 11 11 9 10 9 11 9 14 37 47 40 37 42 42 34 30 26 23 21 20 26 29 24 22 25 28 32 35 43 54 56 57 59 54 53 58 66 72 71 73 74 74 74 72 69 66 63 62 63 65 66 66 67 66 64 61 58 54 49 42 38 37 35 33 31 30 27 23 22 22 23 24 23 23 24 23 23 24 24 25 25 25 25
20 19 17 13 11 12 14 16 16 16 17 15 14 12 14 14 11 13 12 15 18 19 34 44 40 37 39 41 35 32 30 27 27 24 26 29 25 24 30 34 34 37 47 54 56 57 54 50 52 57 66 72 71 73 75 74 75 73 71 68 67 69 70 70 70 70 70 71 69 68 66 64 61 53 47 43 39 36 35 33 31 26 24 23 22 23 24 23 24 24 24 24 24 24 25 25 26
23 19 15 12 12 14 14 16 16 16 17 16 14 14 16 18 16 16 14 16 23 29 33 36 39 37 36 38 38 38 38 35 31 25 24 26 24 24 32 37 37 41 49 54 55 55 53 51 52 57 68 73 68 68 68 71 75 74 71 71 72 73 71 68 67 67 68 71 71 71 71 71 70 65 59 52 45 43 41 38 35 31 28 27 26 24 23 24 24 24 24 24 24 24 24 25 26
22 19 15 13 12 13 14 16 16 16 17 16 15 14 15 21 20 19 22 19 20 26 30 34 37 36 37 37 38 37 37 36 29 24 22 21 22 28 35 38 38 40 45 53 54 51 52 51 51 58 69 71 67 64 62 64 71 72 71 71 70 68 66 65 63 64 67 70 70 69 69 70 74 73 70 64 55 51 50 45 41 38 34 32 31 28 25 25 26 26 25 25 24 23 24 25 25
20 19 16 15 14 13 13 15 16 16 16 16 15 14 14 19 22 24 29 26 24 27 28 33 36 37 40 38 38 36 33 30 24 23 21 17 22 30 33 34 36 38 41 49 51 48 49 49 52 59 66 69 69 65 61 60 63 67 68 66 63 61 61 61 60 61 64 66 65 64 63 65 71 73 74 74 70 66 63 57 53 51 45 38 36 34 30 26 26 27 26 26 25 24 23 23 24
21 19 16 17 15 15 14 15 17 16 16 17 15 14 14 16 22 25 27 27 28 32 36 37 37 39 40 39 38 34 29 24 23 26 22 20 27 26 23 24 28 36 44 50 50 49 47 48 52 58 64 68 68 66 63 62 63 63 61 58 58 58 58 57 57 59 61 62 62 60 59 60 65 69 70 73 76 75 72 67 63 60 57 51 45 40 34 29 28 28 27 26 26 27 25 24 24
24 20 18 19 18 17 16 16 17 16 16 16 15 14 13 17 20 20 22 26 30 34 39 41 41 41 41 39 38 32 25 21 24 29 23 21 23 18 16 16 18 30 45 51 51 50 48 50 54 55 59 65 65 63 63 65 65 59 54 54 57 56 55 55 55 56 57 58 57 56 56 58 62 65 67 68 70 73 71 68 64 62 61 61 58 51 42 34 31 30 27 26 25 26 27 26 26
24 22 20 19 18 18 17 18 17 16 16 15 16 14 13 16 18 20 22 23 32 39 40 42 41 40 41 39 35 29 23 18 22 30 26 19 17 12 12 13 13 24 40 49 51 50 49 52 53 49 51 56 59 59 61 63 60 55 52 53 53 52 52 52 51 50 51 52 53 53 54 54 56 59 62 62 63 65 65 64 63 63 63 65 65 64 58 47 41 39 31 27 28 27 27 28 27
23 23 21 19 18 17 16 17 17 16 16 15 16 14 14 15 15 24 26 18 29 44 43 41 39 39 42 37 30 25 19 18 23 28 24 18 15 12 12 11 12 24 40 48 50 49 48 51 50 45 45 48 52 57 60 58 54 53 51 50 49 48 48 48 46 44 44 45 47 50 51 50 50 50 53 56 57 59 62 63 64 64 66 67 67 70 70 62 55 52 40 29 30 31 31 29 28
22 21 20 19 18 17 15 15 16 15 15 16 16 14 14 15 14 19 24 20 29 45 45 42 41 41 38 31 26 23 18 20 24 25 22 16 14 12 13 12 16 31 41 45 48 47 48 50 47 43 43 48 51 54 57 54 51 49 46 46 47 45 42 40 40 39 39 41 43 47 50 51 50 47 48 51 55 58 61 63 64 66 69 70 69 69 71 70 67 65 54 35 28 30 33 34 31
22 20 19 18 17 16 14 14 15 14 15 15 15 15 13 14 14 14 24 33 38 47 48 43 45 42 35 27 23 24 26 26 25 23 19 16 13 12 14 16 24 36 39 39 45 48 50 48 43 43 46 50 51 52 54 51 48 44 41 41 39 38 36 35 38 41 41 42 44 47 48 50 51 50 50 53 55 57 59 61 63 67 71 71 71 71 73 75 74 74 69 51 34 29 32 36 35
20 19 18 17 16 14 13 13 13 13 14 15 14 15 13 12 14 13 27 41 41 49 52 46 47 45 40 34 25 26 33 29 23 19 16 15 13 13 17 22 28 39 41 41 45 48 47 44 42 42 43 47 48 51 53 49 44 39 36 34 29 31 33 32 37 41 42 46 49 49 48 49 52 54 56 58 59 60 62 64 68 71 75 75 74 76 78 79 78 78 77 70 60 53 52 49 40
18 17 16 15 15 14 13 11 12 14 13 14 14 14 14 12 13 15 25 34 32 43 53 48 46 45 43 40 31 28 32 26 19 16 14 14 12 14 23 29 34 42 43 44 49 48 44 43 42 39 39 43 46 50 50 45 39 34 31 29 26 28 29 29 33 34 36 42 46 45 45 48 52 55 59 61 62 64 66 69 74 76 77 77 77 79 81 82 81 80 80 80 78 77 78 73 55
17 15 14 14 15 14 12 11 13 15 13 14 14 14 14 11 13 15 19 30 33 38 49 48 45 43 41 40 36 33 29 22 18 16 14 14 12 16 28 35 40 41 41 46 50 46 44 45 43 40 40 43 46 46 43 39 34 29 28 27 24 24 24 25 26 24 25 30 35 38 44 48 51 53 56 57 60 64 67 71 74 75 75 75 77 78 80 82 83 82 81 80 80 79 81 83 69
15 14 14 13 14 13 11 11 14 16 14 14 14 13 14 11 13 14 18 37 44 39 45 47 42 40 36 34 35 37 32 25 25 22 15 14 12 16 27 34 38 40 42 49 47 41 41 44 44 42 40 41 42 36 32 32 30 26 26 26 25 22 21 22 21 20 22 26 29 35 40 42 43 44 45 47 52 59 66 72 74 75 74 73 74 75 77 80 82 82 80 80 80 80 79 82 75
14 14 14 13 13 13 11 11 13 16 15 14 14 13 12 10 12 16 26 47 49 41 47 45 36 33 29 28 30 35 35 31 33 28 21 21 17 18 26 30 35 40 42 42 39 34 33 38 43 40 35 33 32 29 27 28 26 24 26 27 27 23 20 20 19 20 22 25 28 30 32 33 35 36 36 38 42 49 58 67 71 72 74 73 73 74 76 79 81 82 81 83 83 81 81 82 79
14 14 14 13 13 13 12 11 12 16 16 14 14 13 12 11 12 14 25 49 53 43 45 41 32 27 22 25 31 35 36 34 34 33 31 31 24 21 24 25 29 33 31 28 27 26 25 30 36 33 30 31 31 30 29 26 24 24 26 28 27 24 21 20 20 21 23 24 25 26 27 28 29 30 33 35 38 43 48 53 57 61 67 71 72 74 76 78 82 85 84 84 83 82 83 83 83
14 14 14 12 13 12 12 12 12 14 15 14 14 13 12 11 12 13 17 41 55 45 42 38 28 23 20 26 35 37 36 36 37 37 38 38 29 20 19 19 21 21 21 21 22 22 23 26 30 32 35 35 34 32 27 24 24 24 25 26 26 25 24 23 24 25 26 26 27 29 29 29 30 31 33 36 39 43 45 46 47 50 56 63 68 71 73 75 78 84 85 82 82 83 83 82 83
15 14 14 12 13 12 11 12 12 14 14 14 14 13 13 12 12 13 15 34 54 50 41 34 25 22 23 29 36 39 37 37 40 41 42 41 29 16 15 16 15 16 18 21 21 22 24 28 36 41 41 38 35 31 27 25 23 22 24 25 26 27 26 26 26 27 28 29 30 32 33 34 36 38 39 41 43 44 44 45 44 45 48 52 58 62 67 71 73 77 80 79 81 83 84 85 88
15 14 14 14 14 14 12 11 11 13 13 13 14 12 13 13 11 13 14 24 47 53 41 30 23 21 26 30 34 38 39 39 42 44 44 41 26 14 13 14 14 17 19 20 21 23 26 33 41 44 42 39 35 30 28 26 23 22 23 25 26 27 28 27 28 29 29 30 31 33 35 37 42 47 50 50 49 47 45 43 42 42 43 45 48 52 57 64 69 74 77 77 80 82 85 90 94
16 15 15 15 16 16 15 14 13 13 13 13 13 12 12 13 11 13 14 15 29 40 35 25 19 19 25 32 34 37 39 40 41 42 42 38 25 14 13 14 16 19 20 19 20 24 28 34 41 43 41 38 34 31 29 27 25 24 24 25 26 27 28 27 29 31 32 33 34 35 37 41 46 52 56 56 53 46 40 37 38 40 43 45 47 51 55 60 65 73 77 77 78 81 83 89 93
15 15 15 16 16 17 16 16 15 14 14 12 11 12 12 12 12 12 14 14 15 24 30 25 16 13 19 28 33 34 36 39 39 39 42 37 25 17 13 14 17 19 19 18 20 25 29 33 38 39 38 37 34 33 31 28 26 26 26 26 26 26 27 28 31 34 36 36 37 39 44 47 51 57 60 59 52 42 38 39 40 43 46 47 48 51 56 60 64 70 77 79 77 78 80 84 91
15 15 15 16 17 18 16 15 16 15 15 14 12 13 12 12 14 13 13 14 13 19 35 41 33 23 23 32 38 38 38 38 36 37 42 39 29 21 14 14 18 19 19 19 19 23 26 29 33 35 36 36 34 34 31 28 27 27 26 25 26 27 28 29 32 35 37 38 40 44 49 53 57 63 63 57 52 48 49 50 52 54 55 54 53 52 53 58 62 66 73 79 79 79 79 83 89
15 15 15 17 17 17 15 14 16 16 16 14 13 16 16 12 12 13 13 13 15 19 31 49 52 41 37 40 43 44 43 41 38 41 44 43 36 25 15 16 19 18 21 21 18 21 25 26 28 31 32 31 31 33 29 26 27 27 27 27 26 27 27 29 31 33 35 38 42 45 52 63 66 65 60 54 55 56 55 55 57 60 61 61 60 57 54 54 58 62 65 70 77 81 81 82 86
15 14 14 17 18 16 15 15 15 16 16 14 13 17 17 13 12 14 13 13 16 18 27 45 51 44 43 45 45 46 44 42 43 46 46 45 42 32 18 15 19 20 23 22 20 27 29 25 26 30 31 28 27 28 28 28 29 29 30 29 27 27 28 30 30 32 36 40 45 46 55 69 71 66 63 61 60 54 51 54 57 60 62 64 66 64 61 58 59 62 63 66 74 81 81 80 81
15 10 12 15 16 15 14 14 16 17 16 14 13 14 14 13 13 13 13 13 14 17 32 48 47 41 44 48 49 47 43 43 43 42 43 44 46 41 25 18 22 24 23 22 24 35 38 28 25 29 29 27 24 25 27 29 30 30 30 30 29 29 31 33 33 36 40 45 49 47 49 64 73 73 69 65 57 47 48 55 56 56 58 62 64 64 63 64 63 64 67 69 72 79 81 79 80
14 8 10 11 12 14 13 14 16 16 18 17 13 13 16 15 12 13 13 14 14 17 33 49 47 43 46 49 51 49 48 50 45 40 39 41 45 47 37 27 27 29 34 38 35 43 49 36 25 25 25 25 24 23 24 26 28 29 29 30 31 33 36 37 38 42 47 50 51 44 41 54 66 70 69 64 54 47 49 54 52 51 52 55 56 55 56 60 63 64 66 69 72 79 83 83 84
12 10 12 11 13 15 14 16 17 16 21 21 14 13 17 16 13 15 16 16 16 19 32 42 41 44 49 50 51 53 54 52 48 44 41 40 42 47 46 39 35 39 51 56 45 43 45 34 26 24 24 24 24 24 25 27 29 30 32 34 36 39 41 44 47 48 49 48 45 37 35 40 43 50 59 58 50 46 47 45 44 45 47 49 49 49 52 56 59 61 64 69 76 81 83 85 86
13 14 15 14 16 17 17 19 17 20 28 24 15 12 15 16 15 16 18 18 16 21 34 43 44 47 49 46 47 50 50 49 49 47 43 40 41 46 51 50 47 47 48 45 38 37 36 33 31 29 26 26 26 28 29 31 34 37 40 43 45 48 51 55 55 50 45 40 36 32 32 35 34 37 46 48 46 48 49 46 44 43 43 44 45 51 61 64 62 61 62 67 74 78 79 84 86
16 16 15 16 18 17 18 18 17 27 35 24 14 13 14 15 18 20 20 20 18 18 25 33 38 41 40 39 41 44 46 49 50 47 43 42 42 47 52 56 56 50 39 31 31 36 39 39 38 34 32 34 35 37 39 41 45 50 52 53 54 53 52 54 51 44 39 34 31 30 31 34 36 38 42 45 47 50 51 51 49 46 45 46 46 51 61 66 67 68 69 68 71 74 77 82 86
18 16 15 18 22 21 21 26 31 34 30 21 15 15 14 15 18 21 22 24 24 20 17 18 21 26 32 36 38 43 48 50 49 47 46 44 46 50 53 57 60 50 35 29 29 34 39 40 39 38 41 43 46 49 51 53 55 56 55 51 50 50 49 48 43 37 34 32 31 32 33 35 37 40 42 45 46 47 50 51 52 50 48 47 47 47 50 55 65 75 77 73 72 73 76 80 85
18 15 15 20 25 27 30 34 38 31 21 19 16 12 18 26 27 23 21 25 27 23 19 17 16 20 29 35 38 44 46 45 45 46 47 46 47 51 52 55 58 50 38 33 31 32 37 38 38 42 47 49 51 53 55 54 50 46 42 39 40 43 43 41 37 34 32 32 33 34 36 37 38 39 40 43 45 47 48 49 51 51 50 50 50 49 48 50 64 80 82 76 74 75 77 81 86
17 16 15 17 21 25 30 33 35 31 22 16 14 22 41 53 46 31 25 29 33 32 26 22 27 32 33 37 40 43 42 40 40 42 44 45 46 48 46 49 56 51 42 39 35 29 32 37 40 43 46 47 50 54 53 47 39 34 32 34 37 37 36 35 33 32 32 32 33 35 36 36 36 36 37 41 44 44 46 51 55 56 57 57 55 56 57 58 69 84 85 77 74 73 73 77 83
16 16 14 16 17 16 22 25 24 22 17 20 41 61 72 74 59 40 34 34 35 41 40 36 39 39 37 38 38 40 40 40 39 38 38 40 44 46 43 44 53 51 40 37 33 27 31 40 44 42 41 44 48 50 43 35 32 32 33 35 35 34 33 34 33 34 34 33 33 34 33 32 32 33 33 36 39 44 50 56 62 63 62 63 66 69 70 71 76 84 86 79 74 72 67 68 76
16 17 15 16 16 15 20 20 19 22 23 41 78 94 90 88 78 61 50 40 38 49 56 54 48 41 39 39 36 37 37 38 41 39 35 36 41 42 40 41 49 47 38 33 30 31 36 41 40 38 37 42 43 38 32 30 32 34 34 33 32 33 34 35 36 36 35 34 32 32 31 29 29 29 30 35 42 50 58 64 67 66 67 73 79 79 77 78 79 80 82 78 74 74 69 67 71
16 16 15 16 16 16 21 22 27 38 39 55 89 101 95 93 93 91 77 55 49 58 64 64 59 50 45 41 37 35 32 34 42 44 39 38 40 39 38 41 44 41 38 37 38 40 39 36 34 33 33 36 34 29 28 31 33 32 31 32 33 35 36 36 37 36 35 33 31 29 28 27 26 27 33 41 48 55 63 67 67 67 74 80 81 80 78 80 81 79 79 76 72 74 72 70 71
17 15 13 16 17 18 20 21 28 36 39 62 95 103 94 87 87 93 85 66 59 62 67 70 63 55 52 46 38 32 29 34 45 48 42 40 41 39 38 39 38 36 40 47 47 41 35 32 31 30 31 32 30 30 31 32 31 31 32 34 35 35 37 37 37 36 33 29 27 25 24 24 25 28 37 46 50 57 63 65 67 71 79 81 78 81 81 78 79 78 76 74 74 74 72 70 72
18 17 14 14 16 17 18 19 24 29 37 65 95 101 96 92 83 67 56 56 57 53 58 63 60 62 63 53 39 30 30 40 48 48 43 42 42 41 38 37 36 37 44 50 44 36 33 34 33 31 33 34 32 31 31 30 30 31 32 33 34 36 38 39 38 34 28 24 23 23 23 24 25 29 39 45 48 57 63 63 68 75 78 78 77 82 85 80 78 78 76 74 74 73 69 68 71
17 17 15 15 15 16 19 18 18 21 35 65 95 101 92 89 83 63 49 56 58 50 50 55 61 69 68 55 42 35 37 48 53 50 45 43 42 42 41 37 36 40 47 47 38 32 34 34 33 34 35 34 33 31 30 30 30 31 31 33 35 39 40 39 34 27 23 24 24 23 22 22 25 31 37 41 45 57 64 63 68 74 75 76 76 78 81 80 78 78 77 76 73 71 71 71 72
19 16 15 17 16 16 23 28 21 15 25 49 76 93 87 77 80 76 65 65 64 58 55 57 64 68 63 59 53 46 48 56 58 52 46 44 44 45 41 34 35 43 46 42 34 32 34 33 33 34 33 32 31 29 29 31 31 30 32 37 39 41 39 33 27 23 23 24 23 23 22 23 27 30 32 36 45 58 66 64 66 72 75 75 76 75 74 75 76 74 74 75 75 74 76 75 72
Wind_Speed
29 29 29 29 28 26 26 26 23 21 22 24 24 24 25 25 25 26 25 20 15 14 12 9 14 16 14 12 10 7 3 4 4 3 2 5 8 10 12 13 12 8 8 8 8 7 8 9 9 10 10 11 12 12 12 12 12 13 13 12 10 9 8 6 5 3 2 2 3 4 5 6 6 7 8 9 10 10 11 11 12 12 12 13 13 14 14 15 15 16 15 14 13 11 10 10 10
26 26 27 26 25 24 25 24 22 22 22 24 26 27 26 24 23 23 22 16 12 12 12 11 13 16 16 13 10 8 4 2 0 0 2 5 7 11 12 11 10 8 7 8 8 7 7 8 8 9 10 11 11 11 11 12 13 13 13 12 11 9 8 7 5 4 3 2 3 4 5 6 6 7 8 9 9 9 10 10 11 12 12 12 13 13 14 14 15 16 16 16 15 13 12 11 10
23 24 24 23 22 22 23 23 22 21 22 26 29 28 25 21 17 14 14 8 9 15 17 16 17 17 12 8 7 7 6 4 4 4 2 3 5 8 10 10 9 8 7 7 7 7 7 7 8 8 9 10 10 10 11 12 13 14 14 12 11 9 9 7 6 4 3 3 3 4 5 6 6 7 8 8 9 8 9 10 11 11 12 12 12 13 13 13 14 14 15 16 16 15 14 13 12
21 22 21 20 20 20 21 23 23 22 23 26 28 26 21 13 2 6 4 8 14 17 15 14 16 17 12 7 4 6 8 7 4 3 4 3 7 7 7 8 8 7 7 7 7 7 7 7 8 8 8 9 8 9 10 12 13 14 13 12 11 10 9 8 6 5 4 3 4 4 5 5 6 6 7 8 8 7 8 9 10 11 11 11 12 12 12 12 13 13 14 15 16 16 15 14 13
19 20 19 19 18 19 20 21 22 24 27 25 24 22 14 6 6 6 5 12 15 14 10 10 10 11 10 6 2 2 4 2 1 1 2 4 9 8 7 7 7 6 6 7 6 6 7 7 7 7 8 8 8 9 10 12 13 13 13 12 11 10 10 8 7 6 4 4 4 4 5 5 6 6 6 7 7 7 8 9 10 10 11 11 12 11 11 12 12 13 14 14 15 16 16 16 15
18 19 19 18 18 19 20 22 22 26 27 23 22 18 9 10 6 5 8 11 13 9 7 8 7 6 7 5 4 5 4 3 2 2 2 4 7 8 8 7 7 6 6 5 5 6 6 7 7 7 7 7 8 9 10 12 12 13 12 12 11 11 10 9 7 6 5 5 4 4 5 5 6 5 6 6 6 7 8 8 9 10 10 11 11 11 11 11 12 12 13 14 15 16 17 16 16
17 18 18 18 19 19 21 24 25 26 23 19 19 14 7 10 8 6 8 12 12 10 10 9 8 5 7 6 6 8 8 6 4 5 4 3 5 8 9 8 6 5 5 4 4 5 6 7 7 7 7 7 8 9 10 11 11 12 12 12 11 11 10 9 8 7 6 5 5 5 5 6 6 4 5 6 6 7 7 8 9 9 10 10 10 10 10 11 11 12 13 13 15 16 16 16 15
16 16 17 18 19 20 21 24 24 24 19 15 16 11 6 9 10 7 8 12 12 11 12 10 9 7 7 6 5 6 8 7 6 7 5 4 6 9 9 7 5 5 4 4 4 4 5 6 7 8 8 8 8 9 10 10 10 11 11 12 11 11 10 9 8 7 6 6 6 6 6 6 5 4 4 6 6 6 6 7 8 9 9 10 10 9 9 10 11 12 13 13 14 15 16 16 15
15 17 17 18 19 20 21 22 22 21 16 12 13 9 5 8 10 8 8 13 13 11 10 7 7 8 7 6 6 6 6 6 6 7 6 5 8 8 8 6 5 4 4 4 4 4 4 6 7 7 8 8 8 8 9 9 9 10 11 12 12 11 10 9 9 8 7 7 6 7 7 7 5 3 5 6 6 6 5 6 7 8 8 9 9 9 9 10 11 12 12 13 13 14 16 16 16
16 17 17 17 18 18 19 21 19 17 12 9 9 8 8 8 9 9 8 10 11 10 9 7 8 8 6 7 7 7 6 5 5 5 5 7 8 7 5 5 6 5 5 4 4 5 5 5 6 6 6 6 7 7 8 8 9 10 11 12 12 11 10 10 9 8 8 7 7 7 7 7 5 3 5 6 7 6 5 6 7 7 8 8 9 9 9 10 11 12 12 13 12 13 14 14 14
16 17 18 18 17 18 18 20 18 14 10 8 8 7 8 10 11 9 8 9 9 11 11 9 10 8 7 7 7 7 6 5 5 4 6 9 8 7 6 5 6 5 5 5 6 6 6 6 6 5 5 5 6 6 7 7 9 11 12 12 11 11 11 10 9 9 8 7 7 7 7 7 4 3 5 7 7 6 5 6 7 7 7 7 8 8 9 10 11 11 12 12 11 11 11 11 11
17 18 19 19 17 18 17 18 17 12 9 8 6 5 7 10 16 15 14 15 13 13 13 11 11 9 8 8 7 8 8 7 6 6 8 9 9 8 7 6 5 5 5 6 6 7 7 6 5 5 5 5 6 6 7 8 10 11 12 11 11 11 11 10 10 9 8 7 7 7 7 6 3 3 6 7 7 5 5 5 6 6 6 7 8 8 9 10 10 11 11 11 10 10 9 9 9
17 19 19 18 16 15 15 17 14 11 10 5 5 6 10 10 19 19 20 19 16 16 14 12 12 10 10 11 10 9 10 8 7 8 9 9 9 8 6 6 5 5 5 4 6 7 7 6 6 5 6 6 6 7 8 10 11 12 11 11 11 11 11 10 10 9 8 7 7 6 6 6 4 4 6 6 7 5 4 5 6 6 6 6 7 8 9 10 10 10 11 10 9 8 8 7 6
18 18 17 16 15 14 14 15 12 11 8 3 8 7 4 12 20 21 23 20 15 15 13 14 15 12 12 13 13 13 11 10 10 9 9 9 8 7 6 6 5 5 5 4 6 7 7 7 7 7 7 8 8 8 9 11 11 11 10 10 11 11 11 10 9 9 8 7 7 6 6 6 4 4 5 6 6 5 4 5 6 7 6 6 7 8 9 10 10 10 10 10 9 8 6 5 4
19 16 14 14 14 14 16 13 9 9 7 6 6 4 12 17 19 19 21 19 16 15 12 13 15 14 14 14 14 15 13 11 12 11 9 8 7 6 6 6 5 5 5 6 7 8 9 8 8 9 9 9 10 10 11 11 11 10 10 10 11 10 10 10 9 9 9 8 8 7 7 7 6 4 4 5 6 5 4 5 7 8 7 7 7 8 9 10 10 10 10 9 9 8 6 5 4
20 16 12 14 16 16 17 12 8 6 7 4 8 12 14 15 15 16 16 16 17 16 10 10 14 14 13 11 10 13 12 10 12 11 9 8 7 6 6 6 5 5 6 7 8 9 9 9 9 9 10 10 11 11 11 11 10 10 10 10 10 10 10 10 10 9 9 9 8 8 7 7 7 6 5 4 6 6 5 6 8 9 8 8 8 8 9 10 10 10 10 9 9 8 7 5 5
22 18 14 17 19 19 18 14 10 2 7 4 12 11 11 12 12 13 13 13 14 13 9 10 14 13 11 9 8 10 10 11 12 11 9 8 6 6 6 6 5 6 6 7 8 9 9 8 9 9 9 10 10 11 11 11 10 10 10 10 9 9 9 9 9 8 8 8 8 8 8 8 8 7 7 5 6 7 7 7 8 10 9 9 8 9 10 11 11 11 11 10 10 9 8 7 6
23 21 19 22 23 21 19 15 11 1 6 4 9 9 9 12 13 13 13 14 14 9 8 13 15 14 12 12 10 10 10 12 12 9 9 8 6 6 6 6 5 5 5 7 8 8 8 8 8 8 9 9 9 9 10 10 10 10 10 9 9 8 8 8 7 7 7 7 7 8 8 9 8 9 9 7 7 8 9 9 9 10 11 10 10 10 11 12 12 12 12 12 11 10 9 9 8
24 22 22 25 25 21 17 15 10 2 3 3 7 10 8 11 13 13 12 14 15 12 14 17 17 17 15 13 12 12 12 12 11 10 9 8 6 6 6 5 4 5 6 7 7 7 8 7 8 8 8 8 8 8 8 9 9 9 9 8 7 7 6 6 6 6 6 6 7 8 8 9 9 10 10 9 9 9 10 10 11 11 12 12 12 11 12 12 13 13 13 13 13 12 11 11 11
23 23 26 26 23 20 17 14 8 1 1 2 7 13 9 11 14 13 13 14 14 13 15 17 17 18 15 13 14 14 14 13 12 12 11 9 7 8 6 5 5 5 7 7 7 7 7 7 7 7 7 7 7 8 8 8 8 8 8 7 6 6 6 5 5 5 5 6 7 7 8 9 10 10 10 9 10 10 10 11 12 13 13 13 13 14 13 13 14 14 15 15 15 14 14 13 13
23 25 28 25 21 20 17 11 5 2 1 2 9 14 10 10 11 12 16 16 12 10 11 12 14 15 13 12 12 12 13 14 14 13 11 9 9 9 8 6 5 5 6 6 6 6 6 6 7 6 7 7 7 7 7 6 7 7 6 6 6 5 5 4 4 5 5 6 7 8 9 10 10 10 10 10 10 11 12 12 12 13 14 15 15 16 16 15 15 15 16 17 17 16 16 16 16
24 25 26 22 19 18 16 12 6 2 2 3 10 16 11 7 6 10 14 15 13 10 9 9 10 10 10 11 11 11 13 14 15 14 12 10 10 9 8 7 5 5 5 5 5 5 5 5 6 7 8 8 7 6 6 6 6 6 6 6 5 4 4 3 4 6 6 7 8 8 9 11 11 10 9 10 12 13 13 13 13 13 14 16 16 17 18 18 16 16 18 19 19 19 18 18 18
22 23 22 19 17 16 15 12 10 6 5 6 13 19 15 7 6 8 10 10 9 9 10 10 10 9 9 9 11 13 14 15 15 13 10 10 10 9 8 7 6 5 5 5 5 4 5 5 6 7 8 8 6 5 4 5 5 6 5 4 3 3 2 3 5 7 8 8 9 10 10 11 11 10 10 10 12 13 13 13 13 13 15 16 17 18 20 20 19 18 19 20 21 21 21 20 20
18 18 17 15 13 16 14 9 9 8 8 10 15 18 16 10 11 11 12 10 6 8 11 12 12 11 9 9 10 12 14 16 15 13 12 11 12 11 8 6 4 4 5 5 4 4 5 4 6 7 7 7 5 4 4 4 5 5 4 3 2 2 1 3 6 8 9 9 10 11 11 11 11 11 10 10 11 13 14 13 13 13 15 17 18 19 20 21 21 20 20 20 21 22 22 22 22
20 19 15 14 14 16 13 9 10 9 8 10 15 17 14 10 12 14 13 10 5 9 12 12 13 12 11 10 11 13 15 17 16 15 13 13 13 10 7 5 4 4 5 5 4 5 4 4 6 6 6 6 5 4 3 4 5 5 3 3 3 2 2 5 7 9 10 11 11 11 12 11 12 12 12 11 11 13 14 14 14 15 16 17 18 19 21 23 23 22 22 22 22 22 22 23 23
20 20 15 15 16 16 14 14 14 9 10 12 15 17 15 9 8 9 9 7 6 8 11 12 13 13 14 13 13 16 18 18 17 15 13 13 12 9 5 3 3 4 5 5 5 5 4 5 5 4 5 5 5 4 3 4 4 4 4 3 3 2 4 6 7 9 10 11 11 12 12 12 13 14 14 14 13 14 15 16 16 17 18 18 18 19 21 24 25 24 24 24 23 23 23 24 24
18 17 16 16 16 16 15 16 15 10 11 12 14 16 17 12 9 9 8 8 7 9 12 14 13 14 16 17 17 18 19 18 15 14 13 13 12 8 5 3 3 5 6 5 6 5 5 5 4 4 4 5 4 4 3 4 4 4 4 3 3 4 5 7 8 9 9 10 10 11 13 14 14 14 14 14 14 16 17 18 18 19 19 20 20 21 22 24 26 26 26 26 26 26 26 26 26
18 17 18 19 18 18 16 15 14 12 12 10 12 16 20 18 15 14 11 10 9 11 14 15 15 16 18 20 20 20 19 17 15 14 12 11 10 7 4 3 4 5 6 6 5 5 5 5 4 4 4 5 5 4 4 4 4 5 4 4 4 6 6 7 8 8 9 9 11 12 13 14 14 13 13 13 14 16 17 18 19 19 20 21 21 22 22 23 26 28 28 28 29 28 29 29 29
19 18 20 21 21 21 19 16 15 14 14 10 10 14 19 22 21 20 14 12 11 12 15 17 17 18 19 20 20 20 19 17 16 14 12 11 9 7 5 4 5 7 6 6 6 6 6 4 3 4 5 6 5 4 4 4 4 5 5 5 5 6 6 6 7 7 7 9 11 12 13 13 12 12 12 14 15 16 18 19 19 19 20 21 22 22 23 24 26 28 29 30 31 31 31 32 31
19 17 19 19 21 23 20 17 16 16 15 12 12 13 17 21 23 22 17 16 15 15 17 17 18 18 17 18 19 20 19 18 17 15 12 11 9 7 6 5 7 8 7 6 6 6 5 3 4 4 5 5 4 4 4 4 5 5 5 5 5 5 4 5 5 5 6 8 10 10 10 10 11 12 13 14 15 17 18 19 19 19 20 22 23 23 23 25 26 28 29 30 31 33 34 34 33
20 16 17 18 21 22 19 17 16 17 17 14 15 16 16 19 22 23 20 19 18 18 19 18 18 17 16 16 18 19 19 18 17 15 13 12 10 8 6 6 7 9 8 7 6 6 4 4 4 4 4 3 3 4 4 4 5 5 4 4 3 2 2 3 4 5 6 7 8 9 10 10 10 11 12 13 14 15 16 16 17 18 19 20 21 21 22 24 26 28 29 29 30 32 34 34 35
20 17 17 18 20 21 19 17 15 17 18 17 16 18 20 18 21 24 22 21 22 21 21 20 18 17 16 16 16 18 19 19 17 16 15 13 10 8 7 7 8 8 8 7 7 5 4 4 4 4 4 3 3 3 4 4 4 4 3 2 1 1 3 4 5 5 5 5 7 8 9 9 9 9 10 11 12 12 12 12 14 15 17 17 18 19 20 22 24 26 28 29 29 30 31 32 35
22 19 18 17 20 22 20 18 16 16 17 19 19 19 21 18 21 23 21 23 25 23 23 22 18 16 14 14 15 18 20 19 18 16 16 14 10 10 9 9 9 9 8 8 7 6 5 5 6 6 5 4 3 3 4 4 4 4 3 2 1 3 4 5 5 5 5 5 5 6 6 7 7 8 8 9 9 10 10 11 12 13 13 13 14 15 17 20 21 24 27 28 28 29 30 30 33
26 22 20 18 20 22 22 18 17 17 17 20 23 23 23 17 21 20 19 26 27 23 24 22 18 15 12 13 14 18 21 20 17 16 15 13 11 11 10 9 10 10 10 9 8 7 7 7 7 7 6 5 4 4 5 4 4 4 3 2 3 4 6 6 6 7 6 6 5 5 5 6 6 7 8 8 8 8 8 9 10 11 11 10 11 12 15 19 20 23 26 26 26 28 29 30 31
28 23 22 21 20 22 22 19 18 20 20 21 23 26 25 19 20 18 18 27 29 25 26 24 19 16 14 15 14 15 19 18 16 16 15 13 13 12 10 10 11 11 10 9 8 8 8 8 8 7 6 6 6 5 5 4 5 5 4 3 4 6 7 7 6 7 7 6 5 5 5 5 5 6 8 8 8 8 8 8 9 10 10 9 10 11 14 18 20 23 25 24 23 26 28 30 32
26 23 22 21 21 23 24 20 18 20 21 23 26 29 28 22 21 20 19 26 31 28 27 26 22 19 17 17 16 15 16 15 14 15 14 13 14 12 10 11 11 11 9 9 9 9 9 9 9 8 8 7 6 5 4 5 6 6 6 5 5 6 7 6 5 5 5 5 5 5 6 6 6 6 6 7 8 8 8 9 9 9 9 9 10 11 12 15 18 21 23 23 24 25 25 27 30
24 23 22 21 20 21 24 23 20 19 20 24 28 30 29 24 20 23 22 25 33 32 29 29 24 20 20 19 19 18 16 15 14 14 13 12 14 14 12 12 11 10 9 9 9 10 11 10 10 9 8 7 6 5 5 6 7 8 8 6 5 5 5 4 4 4 5 5 6 6 7 7 7 7 6 6 6 7 8 9 9 8 9 9 10 11 12 14 17 20 23 24 25 25 22 23 26
25 24 23 21 21 21 22 22 22 21 21 24 28 30 31 24 18 22 22 22 31 35 32 30 27 22 22 23 21 21 19 17 15 14 14 13 14 15 14 13 11 9 9 9 10 10 11 11 10 9 8 7 5 5 5 6 7 8 8 5 4 3 3 4 5 6 7 7 8 8 9 10 9 8 7 7 6 7 8 9 10 10 10 10 11 12 12 13 15 19 22 22 23 25 22 22 25
27 27 26 25 24 23 23 23 22 22 23 25 26 30 32 24 18 20 21 21 26 33 35 31 29 27 25 25 24 23 21 17 14 14 14 14 15 16 15 13 11 9 9 8 9 10 10 11 10 9 8 6 5 4 4 5 6 6 5 3 1 2 4 5 7 8 9 10 10 10 11 12 11 10 9 8 8 9 10 11 12 11 11 12 12 13 13 13 14 16 20 20 21 23 23 22 24
30 30 31 30 28 24 23 23 20 20 24 26 26 31 34 27 23 23 20 20 24 30 38 35 31 29 24 25 24 22 22 17 13 13 13 15 15 16 15 13 12 10 8 8 9 10 11 10 10 9 8 6 5 5 5 5 4 4 2 1 2 4 5 7 9 10 11 12 12 13 13 13 13 13 11 10 11 14 15 15 14 13 13 14 15 15 15 14 13 14 17 19 21 22 22 23 25
34 35 35 32 30 27 24 21 17 17 21 28 29 30 34 32 29 27 22 21 24 30 38 38 33 29 24 25 25 23 21 15 12 12 12 14 14 16 17 14 13 11 10 8 8 9 11 11 10 9 8 7 6 6 6 6 5 5 4 4 5 6 7 9 10 12 13 13 14 15 15 16 16 15 12 11 13 15 14 13 13 13 13 14 15 16 17 17 16 14 14 17 20 22 22 23 24
36 38 37 33 30 28 25 21 18 17 20 29 32 22 24 34 33 28 25 24 25 30 38 41 37 31 27 27 27 25 21 15 13 11 10 12 13 17 18 16 14 13 11 9 8 8 10 10 10 9 8 8 7 7 7 7 7 7 7 7 8 8 10 11 13 14 15 16 17 18 18 18 18 17 15 14 13 11 10 10 11 12 13 15 15 17 18 19 19 17 15 16 18 21 23 24 24
38 39 35 32 31 28 24 21 18 17 19 25 32 21 16 28 32 28 26 25 26 30 37 41 37 30 28 28 28 27 22 18 16 12 11 12 13 17 20 18 16 14 12 9 8 8 9 9 9 9 9 9 8 8 8 8 9 9 9 10 11 12 13 14 16 17 19 19 20 21 21 21 20 19 17 15 13 13 11 10 11 12 14 16 17 18 19 20 21 20 18 17 17 19 23 25 25
38 39 34 32 32 27 23 22 19 20 21 19 32 32 18 17 26 27 25 24 27 32 37 39 36 30 29 29 28 27 23 20 17 14 14 15 15 17 20 21 18 15 13 11 9 9 9 9 9 9 10 9 9 9 9 9 9 10 11 12 13 14 15 17 19 20 21 22 22 23 22 22 22 19 16 15 15 17 16 13 13 15 16 17 18 20 21 22 23 22 20 19 18 19 21 24 25
36 34 33 33 30 23 20 20 19 20 19 14 30 36 16 9 21 26 24 26 30 36 39 38 36 31 28 29 28 27 24 21 19 16 16 17 17 17 19 22 20 17 15 13 12 11 11 10 9 10 10 10 10 10 10 10 11 12 13 14 15 16 17 19 21 22 23 23 22 23 22 22 22 20 18 18 18 18 17 16 17 18 19 20 20 21 22 23 24 23 22 20 19 20 21 23 24
33 27 28 29 23 19 17 17 19 19 15 15 28 35 15 4 21 30 27 31 36 38 39 37 34 30 29 29 29 28 26 23 22 20 18 18 17 16 17 21 22 19 17 15 15 14 12 11 11 11 11 11 11 11 12 12 12 13 14 15 16 17 19 20 22 22 23 23 22 22 22 22 22 20 19 20 20 20 19 19 20 20 22 22 22 22 23 24 25 25 24 23 22 22 23 23 25
31 26 26 25 21 20 18 18 21 14 10 20 29 36 23 6 19 37 35 36 41 42 41 37 33 31 30 29 28 28 26 24 24 22 19 17 17 16 17 21 23 23 21 19 18 16 15 14 14 14 13 13 13 13 13 13 14 15 16 17 17 19 20 21 22 22 22 22 22 23 23 23 22 20 19 21 21 22 22 22 23 23 24 24 23 23 23 25 26 26 26 26 25 24 24 24 25
31 26 25 24 20 19 17 16 18 9 7 20 27 34 31 13 18 36 38 39 44 44 42 37 33 31 30 29 28 27 26 25 24 21 19 17 17 18 19 21 24 26 25 23 20 18 17 16 16 16 15 14 14 14 15 15 15 16 17 17 19 20 20 20 21 21 22 22 23 23 23 23 24 23 22 23 23 24 24 24 25 25 26 25 23 24 25 26 27 27 27 27 27 26 25 24 24
34 29 27 19 9 9 10 7 8 7 8 16 17 24 25 16 20 34 36 38 43 44 43 39 36 34 32 30 29 28 27 26 23 21 19 18 18 19 20 21 23 25 26 25 22 20 19 18 17 17 15 14 15 15 15 16 16 17 18 19 19 19 19 19 20 20 22 23 23 23 23 24 25 25 25 25 26 26 26 26 26 26 27 27 26 26 27 28 27 27 27 26 27 25 23 23 22
35 35 31 18 6 4 5 3 2 5 11 14 13 15 14 12 19 30 34 34 38 41 41 39 37 36 35 33 31 29 28 26 23 22 21 21 20 21 22 22 23 24 25 26 25 21 20 19 18 16 15 15 16 16 16 16 17 18 18 18 18 18 18 19 19 20 21 21 22 23 24 25 25 25 25 26 27 27 27 27 28 28 29 29 29 28 29 29 28 27 26 25 25 24 22 21 21
34 36 35 25 15 8 4 5 4 3 7 11 11 9 6 7 14 23 29 30 33 38 40 38 37 36 35 34 32 30 29 27 26 24 24 23 22 23 24 23 23 24 25 25 24 23 21 19 18 17 16 17 17 17 17 17 18 18 17 16 16 17 18 19 20 20 21 21 22 23 23 24 23 24 25 26 27 28 29 29 30 30 30 31 32 31 29 28 28 26 24 23 22 23 23 22 20
33 34 35 32 27 17 6 4 9 10 6 5 6 4 5 8 13 18 22 24 28 35 39 40 39 37 36 34 32 31 30 29 28 27 25 24 24 24 26 25 24 25 24 23 23 23 20 17 18 18 18 18 17 17 17 17 16 16 15 15 16 17 19 19 20 20 21 22 22 22 21 21 22 24 25 26 27 28 29 30 30 30 31 32 31 28 24 24 24 24 22 20 19 21 23 22 19
32 33 37 36 30 21 10 3 8 11 6 3 5 8 10 10 9 13 18 22 28 34 38 40 38 37 37 35 34 33 32 31 30 28 24 23 25 25 26 27 26 26 25 24 23 21 18 17 18 19 18 17 17 16 15 14 14 14 15 16 17 18 19 19 19 20 21 22 21 20 20 20 22 24 26 27 27 28 28 29 28 29 30 29 25 21 19 19 21 21 20 17 16 19 21 20 18
31 34 38 33 21 17 14 5 3 5 4 3 6 14 18 13 9 13 19 25 33 38 40 41 40 39 38 37 36 34 33 32 31 28 24 23 25 25 26 27 27 26 26 24 22 20 18 18 19 18 17 16 14 13 12 12 13 15 16 17 17 18 18 19 20 20 21 20 20 18 18 20 21 24 25 26 27 28 27 27 27 27 26 23 19 16 15 16 18 18 17 14 14 16 18 17 17
32 34 36 29 16 15 17 8 2 4 3 0 5 16 20 18 19 22 24 29 37 42 43 43 42 41 41 39 37 35 34 34 32 28 25 24 25 26 27 28 27 26 25 24 22 21 19 19 17 16 14 13 11 11 11 12 13 15 16 17 17 18 18 19 20 20 20 19 18 17 17 19 21 23 24 25 26 27 26 26 25 23 20 17 15 12 11 13 15 15 15 13 11 13 15 15 16
33 32 33 33 22 16 20 16 7 6 4 1 4 9 11 18 26 26 24 27 34 39 42 45 45 44 43 39 37 37 36 35 32 28 26 25 26 27 29 29 28 26 25 24 22 20 18 17 14 12 10 10 10 10 11 12 14 15 16 17 18 19 19 19 19 19 18 18 17 16 17 19 21 22 23 24 25 25 24 24 22 19 16 13 12 10 10 11 14 14 14 13 12 13 14 14 15
32 30 30 33 26 16 16 19 16 10 3 4 5 2 8 19 27 26 24 25 31 35 38 43 46 45 43 40 40 40 38 34 31 29 27 26 25 27 28 28 27 26 25 23 20 18 16 14 12 10 10 10 10 10 11 13 14 16 17 18 18 18 18 17 17 17 17 16 16 16 17 19 21 22 23 23 23 23 22 22 20 17 14 12 11 11 11 12 13 14 14 13 13 13 14 14 15
29 30 29 29 26 18 10 10 18 19 9 7 8 3 9 22 26 26 28 28 32 35 37 41 45 44 42 41 40 39 37 34 31 29 28 26 25 26 27 26 25 24 23 20 18 16 14 12 11 11 11 10 10 11 12 13 15 17 18 18 17 16 15 15 15 15 15 16 16 16 17 19 20 21 22 22 22 21 20 20 19 16 13 12 11 11 11 12 12 13 13 12 12 12 14 15 15
Wind_Direction
266 266 266 267 269 271 270 271 270 267 264 261 261 264 270 282 288 286 284 282 294 292 271 255 244 244 240 228 215 233 230 155 157 161 186 169 169 159 150 150 149 154 163 171 181 193 205 208 210 212 214 214 218 221 223 227 230 232 230 227 224 223 222 225 221 214 192 146 105 98 95 97 95 89 84 78 71 67 67 69 72 74 76 76 76 77 77 78 79 80 82 83 85 87 87 87 88
263 262 262 263 264 264 263 264 260 258 257 256 259 264 275 284 281 279 282 285 294 269 235 238 242 241 243 240 240 253 257 206 135 21 159 148 170 167 149 149 157 164 168 168 173 185 201 208 212 216 217 217 218 219 221 226 229 231 229 227 225 223 224 225 220 212 195 165 120 105 100 104 102 95 90 83 77 73 70 69 72 75 79 79 78 80 81 82 83 83 84 84 84 83 83 83 83
259 258 258 257 257 256 257 256 248 249 248 253 263 269 276 278 277 289 291 271 250 238 224 234 242 241 241 245 254 263 280 306 342 346 283 166 164 171 152 154 168 171 169 169 173 182 199 208 213 219 220 219 218 217 220 223 227 229 227 226 223 222 224 222 216 207 195 171 131 112 109 114 110 102 93 86 82 78 75 72 73 78 80 81 81 81 83 85 87 87 87 87 85 83 81 80 80
253 252 252 249 248 247 248 247 243 243 242 251 265 273 275 267 302 13 351 173 204 232 227 229 238 239 240 249 272 281 293 312 318 326 301 196 152 156 161 170 177 174 173 177 179 186 199 206 212 219 219 217 217 216 218 221 224 226 225 224 221 220 221 218 212 201 193 173 139 123 122 125 120 108 96 88 86 84 81 79 79 82 83 83 84 83 85 87 89 90 90 89 88 85 81 78 77
243 242 242 240 238 238 236 240 241 239 243 252 264 276 270 212 112 76 110 157 199 234 232 230 239 231 227 238 259 273 284 306 236 106 46 152 155 162 175 183 178 179 184 186 189 192 202 209 215 215 214 213 213 214 215 219 221 223 223 221 219 217 216 214 208 199 191 173 149 139 139 137 131 114 98 91 92 94 89 84 84 86 87 86 85 86 88 89 91 91 91 91 89 87 84 80 78
235 233 232 231 230 231 230 233 237 240 250 256 261 273 245 184 160 139 149 175 202 231 239 241 257 229 203 193 165 167 148 131 167 172 145 145 168 177 180 183 179 187 194 197 201 204 212 214 216 212 212 212 211 212 214 217 218 219 219 218 216 214 213 211 205 197 190 176 164 159 153 148 142 122 97 96 102 103 96 89 90 91 90 89 89 90 92 93 94 94 93 93 92 90 87 84 81
226 226 224 222 224 227 227 232 237 245 256 256 257 268 226 176 167 153 167 200 210 225 236 239 263 249 190 170 170 163 133 137 182 214 199 174 190 188 188 186 182 194 200 203 208 213 217 215 213 210 211 212 210 212 214 215 215 216 216 216 214 212 211 208 204 198 191 184 178 170 163 158 152 127 94 101 112 110 102 96 96 97 93 92 94 95 97 98 99 99 98 96 95 93 90 87 84
218 218 217 214 218 222 226 233 237 247 255 251 255 258 211 155 160 172 179 211 228 234 238 245 262 253 197 183 192 166 138 153 194 223 219 204 201 200 200 191 188 200 197 195 200 208 210 209 209 209 210 212 211 213 214 214 213 213 214 214 212 210 208 206 204 200 195 192 186 176 169 166 161 124 97 109 118 117 108 104 105 102 98 97 100 102 103 104 105 104 104 101 99 97 94 90 88
211 212 212 210 215 220 225 233 237 244 247 239 246 244 200 151 170 192 191 216 235 242 240 240 244 239 209 180 177 164 154 171 205 232 236 214 199 205 201 182 184 190 191 190 190 190 188 198 206 210 212 213 213 214 215 214 213 212 212 212 210 208 206 207 207 203 200 195 188 178 175 175 167 116 106 122 125 126 117 114 113 107 105 105 107 110 111 111 112 111 110 107 104 101 98 95 92
206 208 208 207 214 221 226 232 237 243 240 236 240 226 201 178 183 187 180 209 226 234 219 203 217 220 189 160 158 154 157 178 201 232 220 192 184 191 183 170 170 175 191 186 184 182 183 196 203 208 210 213 213 214 215 212 212 211 212 210 207 206 206 209 208 204 201 196 190 184 185 184 170 116 124 133 134 134 126 125 120 116 114 113 116 119 121 120 120 120 118 114 110 106 103 101 99
201 204 205 207 213 219 224 232 239 239 234 248 233 204 211 206 202 198 193 218 235 240 227 214 216 210 184 167 167 162 167 188 191 193 178 169 168 173 167 166 165 172 189 185 187 188 192 199 197 199 201 209 210 211 211 209 211 210 209 207 205 205 207 209 207 205 201 199 194 192 193 190 179 134 144 140 142 143 134 136 128 126 125 122 127 130 130 130 130 129 126 122 117 112 108 105 101
197 201 204 206 213 219 225 234 239 240 240 261 236 204 269 230 204 202 205 226 244 248 246 237 220 211 205 196 197 189 191 204 193 176 162 158 165 171 166 163 162 169 181 185 192 192 196 194 187 189 194 203 203 204 205 206 210 209 207 204 205 206 207 208 207 206 202 201 200 201 197 194 190 151 152 145 150 152 143 146 141 137 136 135 138 140 140 140 140 139 136 131 126 120 113 107 104
191 200 205 204 211 215 226 238 244 262 260 279 321 301 294 229 196 196 204 222 240 245 245 236 227 224 219 209 204 194 197 208 199 179 161 159 169 171 165 157 153 158 165 178 190 194 193 184 180 184 191 196 194 198 200 206 210 209 206 202 206 207 207 209 209 207 203 205 206 206 201 199 193 159 157 155 158 159 154 156 155 152 147 148 149 151 152 150 152 150 147 142 137 130 122 115 112
188 198 204 204 206 208 224 240 249 272 279 5 357 326 256 188 183 194 210 221 229 231 224 214 226 234 219 210 203 198 206 209 196 181 171 171 172 166 161 153 153 160 162 173 185 188 185 178 178 182 187 190 191 196 200 207 209 207 206 204 208 208 208 213 212 208 204 207 208 210 208 208 205 176 171 169 168 165 164 170 171 168 162 164 165 164 163 162 164 164 159 154 150 143 137 133 127
186 190 202 210 207 208 219 230 239 268 316 28 35 112 156 170 180 198 219 231 225 216 213 205 217 230 226 228 220 210 214 207 191 184 181 179 169 162 163 160 163 165 163 171 182 181 176 174 177 182 187 190 192 196 202 207 208 205 203 204 208 208 211 216 215 210 209 210 211 214 216 216 221 213 197 182 178 174 172 183 186 182 177 177 178 178 176 174 176 178 175 168 163 159 157 158 155
181 183 204 220 211 211 212 210 217 269 335 46 121 141 162 169 186 212 225 237 224 207 212 204 202 217 228 238 233 216 212 198 185 182 181 179 173 173 172 169 169 165 168 172 178 176 172 174 178 185 188 192 196 198 205 207 206 203 200 204 206 207 213 219 218 217 217 217 216 219 220 221 226 228 223 200 184 184 183 192 197 194 191 188 188 192 191 186 187 191 190 184 179 178 178 182 186
178 184 206 219 212 207 200 194 196 273 2 122 152 158 184 183 191 221 219 214 208 198 206 194 189 204 208 195 194 201 200 189 185 184 181 179 181 186 182 182 175 165 172 171 167 167 170 176 179 186 189 193 197 200 204 204 203 200 199 202 203 206 212 219 223 225 225 224 225 225 225 226 228 226 228 218 195 193 194 200 205 203 201 199 199 203 203 198 198 202 203 199 196 195 199 205 210
184 191 204 213 209 197 187 184 186 318 24 141 175 162 182 199 202 219 212 201 201 195 192 188 186 191 193 181 175 180 183 185 187 184 182 183 185 191 194 190 176 164 168 168 162 161 166 177 182 182 183 188 193 197 201 201 199 197 199 202 202 205 209 217 227 232 232 232 235 233 231 230 228 223 225 223 211 204 200 203 210 210 209 208 209 213 213 209 207 211 213 212 211 210 215 221 225
190 195 206 211 202 188 181 186 193 280 12 142 191 176 187 211 210 218 218 214 215 204 180 183 191 190 191 181 170 172 177 184 187 186 182 182 185 189 197 186 171 169 167 167 162 160 168 182 189 182 176 182 190 194 197 198 196 194 196 199 202 202 202 212 224 232 235 237 239 237 234 232 228 225 225 225 222 218 209 206 209 212 216 216 218 221 222 219 215 218 221 223 222 223 226 231 236
195 200 211 210 201 195 193 198 190 249 313 115 181 183 186 202 212 230 230 222 217 211 188 185 195 193 188 177 171 176 180 186 189 189 185 181 186 186 186 174 171 180 172 168 161 161 180 195 195 185 176 182 193 197 198 197 195 192 188 194 199 196 198 209 222 234 240 239 243 241 238 237 232 226 224 223 224 226 222 217 212 211 217 222 224 226 229 228 224 225 228 231 232 231 233 237 242
199 207 215 209 205 204 192 186 152 114 205 153 196 192 173 178 209 234 231 221 204 209 208 199 203 198 198 191 184 186 188 194 192 189 187 186 193 190 183 173 176 189 180 164 153 161 186 198 193 184 180 188 199 199 198 194 192 188 181 189 193 195 205 217 239 253 256 250 251 250 247 247 240 230 225 222 223 229 230 227 223 218 219 224 228 229 231 232 231 231 233 237 238 238 238 240 244
201 212 220 215 216 208 187 190 196 255 274 183 214 210 186 152 187 217 221 220 207 216 226 219 221 212 211 209 207 209 203 201 197 191 187 188 196 191 179 171 170 185 187 160 146 162 184 188 179 177 184 193 196 187 182 182 185 187 182 187 196 208 221 239 270 272 268 262 262 261 257 255 250 242 234 227 226 232 234 230 230 228 226 227 231 232 231 232 234 236 237 239 242 243 242 243 245
208 214 218 221 226 220 208 215 225 274 299 241 230 217 204 183 179 194 205 214 215 227 229 221 227 222 213 215 218 218 210 203 198 189 184 191 193 181 167 165 166 176 188 168 151 168 181 179 162 166 186 193 188 173 163 173 177 177 179 194 214 219 231 264 279 276 272 272 272 270 268 263 257 253 246 235 231 237 240 235 233 235 235 234 234 236 235 234 236 237 238 240 243 246 246 247 247
218 216 210 221 234 234 227 218 229 275 291 243 227 214 205 204 197 194 209 220 203 198 213 217 220 218 211 216 219 215 209 201 194 185 180 187 186 175 163 161 171 182 187 170 157 174 175 171 158 160 187 194 187 175 161 162 160 157 169 194 191 175 234 277 276 276 277 277 275 274 275 272 266 263 255 245 238 239 241 240 242 245 248 244 238 238 238 238 239 239 239 239 243 247 249 250 250
222 219 211 225 237 244 236 224 240 271 279 228 212 210 200 193 198 205 222 228 187 175 196 206 206 204 201 206 214 211 206 201 197 190 185 188 188 178 163 167 189 198 196 176 158 176 178 165 157 158 184 198 192 180 166 148 140 138 149 164 150 162 249 268 270 273 275 274 275 275 276 276 273 270 263 257 250 246 247 248 252 256 259 255 246 241 240 240 240 242 241 239 241 245 250 252 252
220 226 225 229 234 242 239 239 246 259 270 237 212 212 202 189 208 222 236 230 194 175 185 196 201 198 195 199 209 211 211 209 202 195 192 193 191 182 170 185 207 206 205 184 160 172 185 173 160 160 187 201 194 179 162 145 136 131 135 148 163 213 247 257 265 270 272 271 274 276 276 277 277 275 271 266 261 256 254 256 258 261 263 260 254 249 245 242 240 241 242 240 240 242 246 251 251
213 227 232 233 237 238 236 241 242 248 272 250 224 217 199 194 230 237 231 231 207 177 182 193 203 201 194 196 202 205 209 211 205 199 200 196 190 186 185 203 212 206 203 183 166 175 193 184 163 163 190 203 194 179 160 150 140 133 138 155 197 222 235 249 258 265 271 274 277 279 278 279 281 280 278 274 268 260 257 259 263 265 264 260 258 255 251 245 240 240 240 241 241 241 243 246 249
208 217 225 226 231 232 230 235 236 245 264 250 237 230 205 201 232 246 234 229 216 189 185 189 199 201 194 195 198 200 205 208 207 206 205 197 192 191 195 209 209 203 200 188 175 184 196 184 160 161 188 200 194 182 162 155 146 136 144 166 203 224 231 246 255 260 269 278 282 283 283 284 286 286 285 285 278 270 264 264 267 268 266 261 257 256 254 247 241 239 238 240 242 244 245 245 248
209 215 228 224 224 231 228 228 230 240 251 242 237 232 219 215 230 248 237 214 211 199 191 187 193 198 196 198 198 198 202 205 209 209 204 198 197 202 204 209 205 200 199 193 181 187 196 175 160 167 183 195 191 179 158 144 143 139 152 174 204 223 231 248 253 258 272 286 290 290 291 293 295 294 293 292 288 282 277 274 273 272 267 261 257 255 255 251 243 239 238 239 242 245 248 247 247
219 223 241 239 240 240 226 225 230 235 239 230 225 223 225 222 224 240 231 206 207 204 198 191 190 195 199 204 204 200 200 206 211 209 204 201 206 210 206 205 200 192 186 182 180 188 196 177 167 169 181 195 183 166 148 130 139 145 158 182 213 228 238 259 263 273 290 299 300 300 302 304 304 301 296 292 288 285 282 282 280 276 271 266 261 257 255 252 245 239 239 240 242 244 247 247 246
221 227 244 249 255 246 226 225 230 232 229 222 230 232 233 226 217 228 228 215 216 209 204 197 188 191 199 203 206 207 205 208 212 208 205 206 210 212 205 200 190 182 176 169 178 190 193 186 180 174 183 189 168 154 133 128 144 149 161 189 225 248 282 302 311 319 319 315 312 312 313 313 310 304 298 293 290 287 285 285 283 280 275 271 267 262 256 250 243 239 241 243 245 246 246 246 243
212 229 243 242 249 244 226 222 222 225 221 217 231 238 245 236 213 222 230 220 216 211 209 202 190 191 196 200 205 215 216 211 211 210 212 212 211 212 205 194 183 180 175 165 173 188 189 187 183 176 175 170 164 151 130 144 154 148 155 178 224 10 19 0 352 347 343 336 326 322 321 323 322 316 311 306 303 300 295 290 285 283 281 275 269 265 258 250 243 239 241 245 248 248 248 245 241
210 227 242 235 238 239 228 220 218 221 218 219 224 233 249 234 205 220 229 214 209 209 210 204 197 199 202 211 218 223 220 213 215 218 218 217 213 212 201 186 183 182 178 170 171 184 189 186 179 173 174 175 173 155 142 155 153 136 137 130 83 53 46 28 16 16 14 5 345 337 334 337 340 340 337 333 329 321 311 301 293 290 289 281 271 264 257 251 247 244 245 249 250 248 247 246 241
213 222 232 228 228 232 231 224 217 216 219 226 227 233 246 223 198 221 224 208 207 207 207 204 203 209 217 231 237 231 221 219 227 226 221 220 217 215 201 180 179 181 180 177 177 186 193 187 178 175 176 178 173 159 150 150 137 122 118 100 76 67 62 52 41 39 34 25 9 358 352 349 351 353 351 349 346 342 331 315 306 303 300 292 279 267 258 256 255 252 250 250 249 246 245 245 242
208 212 219 223 223 225 229 228 218 214 219 227 229 235 243 220 198 224 227 209 209 208 208 209 212 222 233 240 237 226 219 222 232 229 225 223 219 215 198 177 174 177 177 176 179 186 190 184 174 170 168 168 168 163 153 143 133 121 115 110 89 76 74 66 52 45 39 29 16 4 357 353 350 347 344 344 346 347 344 333 324 319 313 305 295 282 268 262 261 259 255 251 248 246 244 245 246
206 208 214 220 223 225 224 225 221 214 220 226 227 231 240 228 204 219 230 213 210 210 209 213 218 226 234 235 222 210 213 218 222 224 225 223 219 211 190 177 172 171 170 169 174 175 174 172 163 161 161 165 170 167 156 142 135 130 126 122 103 84 74 64 48 38 28 15 7 358 352 349 348 347 341 340 341 340 341 338 334 329 322 313 304 294 280 269 264 262 260 256 252 247 244 245 248
210 211 214 218 225 231 225 224 223 219 228 231 227 228 234 235 215 217 227 214 209 209 207 209 215 221 225 225 216 207 210 215 214 214 216 219 216 204 187 179 171 165 164 162 165 163 160 159 157 162 164 167 174 173 163 148 139 137 132 124 106 84 61 43 22 5 355 348 349 344 338 336 336 337 337 338 337 333 330 326 323 321 317 311 305 300 291 281 274 267 263 261 259 255 249 245 246
213 214 215 220 226 231 227 227 224 221 235 238 231 229 230 235 225 217 225 218 210 209 206 207 211 218 220 219 217 213 212 211 208 207 208 213 213 203 191 180 171 163 160 156 156 157 157 157 158 164 167 173 184 181 170 157 146 141 136 128 105 67 22 356 342 333 330 330 331 331 329 326 322 320 322 327 327 323 317 311 307 305 303 302 300 298 297 293 285 276 271 269 268 265 259 251 248
214 216 222 226 223 228 234 234 228 225 236 241 238 232 230 233 226 218 223 223 220 217 214 214 217 218 215 215 217 217 214 207 205 209 207 208 208 207 200 185 176 168 163 157 153 157 160 160 161 165 174 183 191 192 185 173 159 152 146 134 84 0 337 332 332 326 323 324 325 325 321 315 312 309 304 305 306 306 304 301 299 299 300 300 298 295 293 294 291 281 274 271 267 264 263 259 255
216 218 225 227 220 227 239 236 234 233 236 242 243 236 232 232 230 225 216 219 231 227 220 221 224 224 220 216 215 219 219 207 205 213 211 208 208 212 210 194 183 175 172 164 152 159 163 163 166 171 181 189 194 206 211 202 189 189 198 250 312 318 324 328 329 322 319 322 323 322 314 306 300 289 280 289 303 309 310 309 307 307 306 303 300 297 292 288 289 284 274 268 264 262 261 260 257
217 217 223 224 216 223 237 237 240 250 253 248 239 231 229 229 230 226 211 218 235 224 215 216 217 218 216 210 209 214 216 211 216 223 214 210 213 219 217 203 192 184 180 176 164 165 165 166 173 177 188 197 201 212 218 218 222 236 257 280 296 307 316 321 321 316 316 319 320 318 307 295 286 276 280 302 311 312 313 309 304 301 297 292 290 292 292 288 284 283 276 268 264 262 260 258 256
218 216 218 218 214 223 238 246 253 267 271 248 228 217 225 228 227 223 213 222 228 211 208 210 206 205 205 203 203 205 205 206 215 219 212 212 217 224 221 211 205 195 188 188 180 176 172 171 178 185 196 204 209 219 226 231 240 254 270 282 293 304 310 315 315 314 316 316 318 317 305 292 287 292 304 312 311 310 304 289 282 282 282 280 279 281 286 287 283 279 277 273 268 264 262 260 256
222 217 213 214 220 232 243 249 256 270 273 243 219 208 218 225 224 220 215 218 216 205 206 207 202 200 202 202 201 198 197 199 200 198 207 217 220 225 223 218 216 207 199 198 192 190 188 184 187 197 207 213 219 227 235 244 255 266 277 287 297 305 309 311 312 313 316 317 319 317 307 298 296 305 311 311 315 316 305 288 276 273 273 274 275 277 278 280 279 276 275 274 271 266 265 263 258
222 216 212 218 229 239 246 249 252 264 272 243 215 212 214 216 216 214 212 213 211 207 205 202 200 200 200 199 198 196 195 194 192 194 208 220 222 223 225 223 221 216 211 211 207 200 198 199 201 209 219 226 232 238 244 253 264 274 284 292 299 305 306 308 310 312 314 316 316 315 311 305 301 306 309 310 317 316 308 301 291 283 277 272 271 273 272 271 271 270 269 270 272 269 267 267 264
222 216 215 223 234 245 249 248 251 263 274 244 212 213 216 206 202 201 208 213 208 205 202 197 197 198 195 195 195 195 192 189 192 199 211 222 225 223 225 228 226 222 215 213 215 210 205 210 215 220 228 236 243 251 258 264 272 279 287 293 298 302 302 304 307 309 311 312 312 311 310 306 303 307 308 307 311 309 306 304 298 292 286 280 276 275 273 270 268 268 268 268 270 271 269 267 265
220 216 219 229 241 249 243 243 249 255 263 247 219 211 207 185 190 189 195 203 199 197 198 197 197 193 189 189 191 192 191 190 193 201 212 226 232 229 227 230 229 225 217 212 218 222 221 227 232 235 240 245 251 259 266 272 279 283 288 293 297 298 298 301 304 306 307 308 309 309 307 304 305 307 304 305 307 306 305 304 299 294 288 285 285 283 279 274 270 268 268 266 263 265 268 267 268
217 220 225 233 240 238 235 241 244 241 242 246 230 210 204 203 188 186 187 193 195 194 192 192 192 188 186 187 189 193 195 195 196 202 213 225 235 235 230 231 231 226 223 223 228 232 235 239 244 248 252 257 261 267 273 277 283 288 292 295 295 294 295 298 301 303 305 308 309 309 307 306 307 307 305 304 305 303 303 302 298 295 291 289 288 285 280 274 270 268 267 265 262 261 262 264 268
215 222 226 231 236 232 235 242 233 219 230 241 229 208 207 210 188 185 185 191 197 199 197 193 191 191 192 193 194 198 199 198 199 204 214 223 232 236 234 234 233 230 228 231 233 234 237 242 247 254 260 265 271 277 283 287 292 294 295 295 294 296 298 300 301 304 306 308 309 309 308 308 308 309 307 304 302 301 300 298 296 295 293 291 288 283 277 273 271 267 264 263 263 260 258 258 264
215 222 223 221 220 215 224 234 217 210 231 240 224 203 206 210 191 187 186 190 195 201 204 202 202 202 200 199 199 200 199 200 203 208 215 224 230 237 240 237 235 233 231 234 236 235 237 243 249 257 264 270 275 280 285 289 292 293 294 296 297 298 300 300 301 304 304 306 309 310 309 308 307 308 306 303 302 302 301 299 296 293 291 289 286 281 276 273 269 266 264 262 261 259 257 255 259
214 218 219 211 167 155 210 204 200 225 226 232 222 201 202 205 193 189 190 193 195 198 203 206 209 208 204 202 200 199 201 206 211 214 220 227 231 239 246 242 239 238 234 235 238 239 240 245 251 258 264 270 275 279 283 287 290 293 295 297 299 298 298 298 300 301 302 305 308 308 308 307 307 307 305 304 304 304 304 300 295 292 290 288 286 282 278 273 266 263 264 265 264 263 258 251 256
213 216 219 217 203 185 184 190 190 189 202 212 209 198 191 193 199 196 194 197 199 198 201 203 204 201 199 199 198 199 206 212 218 223 228 232 235 242 249 249 244 241 237 235 238 243 245 246 251 258 264 270 274 279 283 288 293 295 297 299 299 298 298 298 298 300 303 306 308 308 307 306 307 306 305 305 305 305 303 300 296 293 291 289 287 284 278 270 264 262 262 264 267 269 264 252 255
211 213 218 223 219 208 194 193 188 174 173 192 179 148 136 173 205 207 198 198 199 200 201 199 197 197 197 197 198 203 211 217 221 227 233 238 239 243 249 251 246 243 242 238 238 245 248 246 249 255 263 269 273 279 284 289 293 296 298 298 297 296 295 296 298 302 305 308 309 308 308 308 309 307 306 306 306 305 303 301 298 296 294 293 292 287 275 261 256 257 257 260 264 267 266 257 256
208 211 217 222 222 213 202 187 176 169 164 167 129 115 133 159 196 207 202 197 193 194 197 194 194 198 199 201 204 209 216 221 224 226 233 241 243 244 247 248 246 245 246 243 241 247 251 247 248 254 262 267 271 277 283 289 292 295 296 296 295 294 294 297 301 304 306 308 308 308 310 311 309 307 307 308 308 307 306 304 301 301 300 299 297 289 271 249 243 247 250 256 262 260 262 261 259
206 208 214 217 218 211 203 195 157 151 142 182 158 144 153 160 160 182 194 192 187 188 190 190 192 197 200 204 208 213 220 225 224 222 228 238 242 242 243 244 246 248 248 246 246 250 251 248 249 256 262 265 268 276 284 289 291 293 294 292 292 292 295 299 302 304 306 306 305 307 309 308 306 306 308 310 311 311 309 306 305 305 304 302 299 286 265 244 237 240 243 251 261 258 259 262 261
215 212 210 209 209 205 201 194 151 167 153 118 157 157 170 176 165 174 191 190 187 188 188 189 193 199 202 204 209 216 223 225 222 220 226 236 240 240 240 242 247 249 248 245 245 248 248 248 251 254 257 259 266 276 283 285 287 288 289 288 289 292 296 300 302 303 303 302 305 307 306 305 305 307 311 313 314 314 311 309 310 309 304 302 296 279 258 243 236 237 236 239 251 256 258 262 258
218 220 212 210 217 214 205 203 195 179 163 105 148 165 196 192 177 186 205 200 192 192 192 194 198 201 201 202 210 219 222 222 220 222 229 236 242 242 241 245 249 249 245 242 241 243 241 242 243 244 247 254 264 274 278 282 284 284 285 287 291 296 299 300 301 300 301 304 306 306 305 306 307 309 313 315 316 316 312 312 315 311 303 298 289 272 256 242 236 236 234 233 240 248 254 257 254
205 208 202 205 213 214 205 208 210 204 170 120 141 184 220 195 185 195 208 202 196 197 197 199 200 200 199 203 210 216 218 219 220 224 232 239 245 246 246 250 251 245 241 239 238 236 232 231 233 235 242 250 261 273 277 280 283 283 287 291 294 297 297 296 297 298 301 303 304 306 306 308 309 311 314 316 317 318 314 313 317 313 304 295 284 272 260 249 243 241 238 234 235 241 245 247 249
205 204 198 198 203 200 183 198 212 213 214 177 168 195 200 189 188 196 201 198 195 198 200 200 201 201 202 204 208 211 215 218 220 225 234 242 246 246 249 251 244 235 233 233 230 227 225 228 235 240 247 256 268 277 279 280 283 286 290 293 294 294 291 293 296 298 301 303 306 310 310 310 311 313 315 317 318 320 317 315 318 317 308 296 285 274 264 258 252 246 240 236 237 243 243 241 244